SL-16 DEB, 22455

Orbit data source: Space-Track

SL-16 DEB, 22455 is space debris in LEO originally from a launch on Fri, 25 Dec 1992 UTC launched from the Tyuratam Missile And Space Complex (TTMTR). Debris objects in space refer to the collection of defunct objects orbiting the Earth. Examples of debris include non-operational satellites, rocket bodies, and fragments generated from explosions, collisions, or faulty payload assembly.

Loading next visibility...
Identifier
22455, 1992-093EU
Orbit
LEO
Country
Flag of CISCIS
Related business
Manufacturer
Unknown
Mission
Spacecraft
Bus & Motor
Unknown
Mass
Unknown
Launch date (UTC)
1992-12-25 (33 years ago)
Launch vehicle
Unknown
Launch site
Tyuratam Missile And Space Complex (TTMTR)
Object type
Payload
Rocket body
Debris
Shape & HBR
Unknown shape, 0.1 m
Radar Cross Section
Small (<0.1 m²)

Expand to show TLE details & history
Last TLE update: 11 hours ago

TLE from 11 hours ago
0 SL-16 DEB
1 22455U 92093EU  25304.63953578  .00024632  00000-0  46211-2 0  9994
2 22455  70.8429 107.2856 0066283 306.7858 179.3725 14.63246781683015
Epoch: 2025-10-31T15:20Z
TLE epoch observation values (Epoch: 2025-10-31T15:20:55.891Z)
Latitude
49.80553°
Longitude
-7.26869°
Altitude
736.889 km
Speed
7.467 km/s
True Right ascension
17h 32m 34s
True Declination
49° 38' 07"
Sunlit
Object was in daylight at epoch
Visualization orbit readout
Latitude
Unknown
Longitude
Unknown
Altitude
Unknown
Speed
Unknown
Apparent Right ascension
Unknown
Apparent Declination
Unknown
Sunlit
N/A
Visualization observer readout
Local Sidereal Time
21:35:35
Azimuth
Unknown
Elevation
Unknown
Doppler factor
Unknown
Orbital elements
Apogee altitude
727.391 km
Perigee altitude
633.816 km
Semi-major axis
7,058.74 km
Eccentricity
0.00663
Inclination
70.8429°
RAAN
107.2856°
Arg. of periapsis
306.7858°
True anomaly
179.38075°
Mean anomaly
179.3725°
Eccentric anomaly
179.37663°
Mean motion
3.65976 °/min
Orbital period
98.37 mins
BSTAR
0.0046211
Loading maneuver chart data...
Computing Atmospheric mass density...
Loading historical data...
Loading historical data...
Loading historical data...
Loading historical data...
Loading historical data...
Loading historical data...
Loading historical data...

Documentation

Showing up to 5 results
|